Lid_Strength_Index
3 3 3 3 3 3 3 3 3 3 3 2 2 1 1 1 1 1 3 2 0 -2 -2 1 2 2 2 3 3 3 6 9 8 9 9 6 7 5 4 5 5 4 4 3 2
3 4 3 3 3 3 3 3 3 3 3 2 1 1 1 1 1 3 0 -2 -2 -3 2 3 3 2 3 4 3 5 7 8 6 6 7 6 6 6 6 6 6 5 3 2 2
3 3 4 3 3 3 3 3 3 3 2 2 1 1 1 1 2 3 -3 -3 -3 -2 3 3 2 2 5 3 5 5 7 6 6 5 5 6 6 5 7 8 6 7 5 3 3
3 3 3 3 3 3 3 3 3 3 2 1 1 1 1 0 6 1 -2 -3 -3 2 3 3 2 4 5 6 5 7 6 6 6 5 6 7 5 7 6 6 4 4 3 3 4
2 2 3 4 4 3 3 3 3 3 3 1 1 1 1 3 4 -1 -3 -2 1 3 2 2 3 4 6 5 5 7 6 6 5 5 5 5 7 7 7 5 3 3 4 4 5
3 2 4 4 4 3 3 3 3 3 2 1 1 1 2 5 0 -1 1 2 3 3 2 2 3 3 5 6 6 6 6 6 6 6 6 7 7 6 6 4 5 4 5 5 4
3 2 3 4 4 4 3 3 3 3 2 1 1 0 2 3 0 1 2 2 3 2 2 1 2 3 4 6 4 5 8 7 7 6 7 5 9 9 5 5 5 5 5 5 5
2 3 3 4 4 4 3 3 4 2 1 1 0 0 3 0 -0 2 2 3 2 1 1 1 1 3 4 4 5 7 7 10 7 7 7 7 12 8 5 5 6 5 5 5 4
2 3 3 3 4 4 4 4 3 1 1 0 1 2 4 1 3 2 2 3 2 1 1 1 2 4 4 6 8 8 9 10 10 7 7 8 11 7 5 5 6 5 5 4 4
3 3 3 4 4 4 4 4 2 1 -0 -0 0 3 3 3 3 2 2 1 2 2 3 3 3 5 5 7 10 9 9 9 10 9 8 9 10 7 6 6 6 6 5 4 4
3 3 3 4 5 5 4 2 2 3 2 3 3 4 3 2 1 3 2 2 2 3 5 4 6 7 7 6 6 7 8 9 9 7 8 9 10 8 7 7 7 6 5 5 4
3 3 4 5 5 5 3 4 2 2 4 2 2 2 3 2 4 3 1 3 4 6 5 5 7 6 5 6 7 8 9 10 9 8 8 9 10 8 7 7 6 6 5 5 4
4 4 4 5 5 4 3 3 1 1 4 3 2 3 3 2 4 3 2 3 4 6 6 7 6 5 6 7 8 8 9 10 9 9 8 9 11 9 7 6 5 5 5 4 4
4 4 5 6 5 2 2 2 2 2 6 6 4 3 2 2 4 2 2 3 4 6 6 6 5 6 7 8 7 9 7 8 9 10 12 9 13 10 8 7 6 5 5 4 4
4 4 5 6 3 1 1 2 2 2 11 5 4 1 2 4 4 3 2 3 5 6 5 7 7 7 7 8 7 9 7 8 8 10 11 11 12 11 8 9 8 6 5 4 3
4 4 6 4 1 1 2 1 1 8 12 7 4 5 5 4 4 3 3 3 3 5 5 6 5 6 7 6 6 6 8 8 9 9 13 11 12 12 10 9 7 6 5 4 3
4 5 5 2 2 2 0 2 8 11 6 7 6 5 5 6 5 5 5 6 7 8 8 8 7 6 6 8 7 7 9 12 13 14 14 11 12 12 8 7 6 6 5 4 3
4 6 5 2 2 3 2 5 11 9 8 6 6 6 7 6 6 6 6 7 6 6 8 10 12 7 6 7 8 8 9 11 15 14 12 11 14 12 7 6 5 4 4 3 3
5 1 1 0 2 2 3 8 9 8 7 7 7 8 8 7 7 7 7 7 7 6 9 9 11 6 6 6 6 8 10 8 11 11 13 12 11 8 6 6 6 5 4 4 3
-0 0 2 1 0 1 5 9 8 6 6 6 8 7 9 8 8 8 8 6 7 6 5 8 11 8 7 6 6 7 6 11 10 15 15 14 13 13 9 8 7 6 5 4 3
1 4 1 1 0 3 7 7 6 5 5 7 8 8 8 9 8 8 8 7 7 7 5 6 8 9 7 8 9 8 8 9 9 11 14 14 13 8 8 7 7 6 5 4 4
1 5 -0 -0 4 4 6 6 8 6 5 6 6 7 8 8 8 8 9 7 5 5 7 7 8 9 9 7 6 7 9 9 12 13 10 11 13 7 6 6 6 5 5 4 3
2 2 -0 0 6 6 6 6 5 6 6 6 6 6 6 8 9 8 7 6 5 6 7 6 9 11 11 9 7 8 8 8 9 9 12 13 13 7 6 6 6 5 4 4 3
3 5 3 2 3 6 7 7 7 5 6 5 6 6 7 8 7 8 8 6 5 6 5 5 8 10 12 11 8 10 9 8 9 11 11 10 11 9 8 7 6 5 4 3 3
3 5 4 5 5 5 6 6 7 7 5 5 6 6 7 8 8 8 7 6 6 6 5 6 10 9 9 8 8 9 9 9 10 9 11 10 10 9 8 7 6 4 3 3 3
4 4 3 4 5 6 7 6 7 6 6 7 6 6 6 7 7 8 7 7 7 6 6 6 10 9 10 9 9 10 9 9 9 9 9 10 11 7 6 5 5 4 4 4 3
1 1 4 6 6 6 6 6 6 5 5 4 5 6 7 7 5 5 5 5 5 6 7 8 9 10 12 9 10 12 10 9 9 8 9 11 9 6 6 5 5 4 4 4 3